Orbital Elements at Epoch 2459200.5 (2020-Dec-17.0) TDB
Reference: JPL 15 (heliocentric ecliptic J2000)
Element | Value | Uncertainty (1-sigma) | Units |
e | .1883531632022142 | 3.9423e-08 | |
a | 3.157485945081572 | 2.1839e-08 | au |
q | 2.562763479558925 | 1.2476e-07 | au |
i | 4.18665957369685 | 4.6634e-06 | deg |
node | 253.2735934085809 | 5.8005e-05 | deg |
peri | 148.007933387254 | 5.9315e-05 | deg |
M | 264.5852602714591 | 1.4877e-05 | deg |
tp | 2459743.654691560099 (2022-Jun-13.15469156) | 8.8817e-05 | TDB |
period | 2049.323715790066 5.61 | 2.1262e-05 5.821e-08 | d yr |
n | .1756677079497959 | 1.8225e-09 | deg/d |
Q | 3.75220841060422 | 2.5953e-08 | au |
|
| | Orbit Determination Parameters
Additional Information
|